Regional Weather Roundup
Issued by NWS

Home | Current Version | Previous Version | Graphics & Text | Print | Product List | Glossary On
Versions: 1 2 3 4 5 6 7 8 9 10 11 12 13 14 15 16 17 18 19 20 21 22 23 24 25 26 27 28 29 30 31 32 33 34 35 36 37 38 39 40 41 42 43 44 45 46 47 48 49 50
000
ASUS43 KMPX 300601
RWRMN
WEATHER ROUNDUP FOR MINNESOTA
NATIONAL WEATHER SERVICE TWIN CITIES/CHANHASSEN MN
100 AM CDT SUN AUG 30 2015


NOTE: "FAIR" INDICATES FEW OR NO CLOUDS BELOW 12,000 FEET WITH NO
SIGNIFICANT WEATHER AND/OR OBSTRUCTIONS TO VISIBILITY. N/A MEANS
CURRENT SKY AND/OR WEATHER CONDITIONS ARE NOT AVAILABLE.

MNZ060>063-068>070-300700-
   Twin Cities Metro

CITY           SKY/WX    TMP DP  RH WIND       PRES   REMARKS
TWIN CITIES    FAIR      64  62  93 SE6       30.01S
6HR MIN TEMP:  64; 6HR MAX TEMP:  73;

ST PAUL        FAIR      63  63 100 SE7       30.01F
CRYSTAL        FAIR      65  62  90 S5        29.98F
BLAINE         FAIR      64  63  94 S5        29.99F FOG
LAKEVILLE      FOG       57  57 100 CALM      30.02S VSB 1/4
EDEN PRAIRIE   FAIR      63  61  93 S8        30.00S
6HR MIN TEMP:  63; 6HR MAX TEMP:  71;

SOUTH ST PAUL  FAIR      64  62  94 SE3       30.01S FOG
LAKE ELMO      FAIR      61  61 100 SE5       30.02F
$$
MNZ001>005-007-008-013>017-022>024-027-028-300700-
   Northwest Minnesota

CITY           SKY/WX    TMP DP  RH WIND       PRES   REMARKS
BEMIDJI        FAIR      64  62  91 S5        29.90S
HALLOCK        FAIR      70  66  88 S12       29.78F
ROSEAU         FAIR      66  63  88 S10       29.82S
WARROAD        FAIR      66  64  94 SW9       29.83S
THIEF RVR FALL FAIR     N/A N/A N/A S10       29.84S
CROOKSTON      FAIR      68  64  88 S14       29.84S
FOSSTON        FAIR      63  61  94 S12       29.88F
DETROIT LAKES  FAIR      64  63  94 S8        29.92F
MOORHEAD       FAIR      66  64  94 S13       29.87S
PARK RAPIDS    FAIR      62  59  90 SE7       29.94S
MAHNOMEN       FAIR      65  63  91 S8        29.88F
$$
MNZ006-009>011-018-025>026-300700-
   North Central Minnesota

CITY           SKY/WX    TMP DP  RH WIND       PRES   REMARKS
BAUDETTE       FAIR      66  63  90 S8        29.84F
FLAG ISLAND    FAIR      66  64  94 S8        29.80F
INTL FALLS     FAIR      65  62  90 S6        29.88F
6HR MIN TEMP:  65; 6HR MAX TEMP:  69;

WASKISH        FAIR      66  63  88 S6        29.87F
BIG FORK       FAIR      64  61  88 S8        29.92F
LONGVILLE      FAIR      63  63 100 S6        29.94S
GRAND RAPIDS     N/A     63  59  88 S9        29.95S
CRANE LAKE     FAIR      63  61  94 S5        29.93F
COOK           FAIR      64  61  88 S5        29.94S
WALKER         FAIR      64  62  93 S8        29.92F
$$
MNZ012-019>021-037-300700-
   Northeast Minnesota

CITY           SKY/WX    TMP DP  RH WIND       PRES   REMARKS
DULUTH         FAIR      63  60  90 SW9       29.98S
6HR MIN TEMP:  63; 6HR MAX TEMP:  71;

ELY            FAIR      63  61  94 SW5       29.95S
HIBBING        FAIR      61  59  93 S3        29.96S
EVELETH        FAIR      59  59 100 SW3       29.97F
DULUTH HARBOR  FAIR      64  63  94 MISG      29.97S
TWO HARBORS    FAIR      64  59  82 W3        29.95F
SILVER BAY     FAIR      59  57  94 CALM      29.95S
GRAND MARAIS     N/A     53  52  96 CALM      29.94F
G MARAIS ARPRT FAIR      61  57  88 SW3       29.99S
$$
MNZ029>031-032-039>041-046>048-054>057-064-300700-
   West Central Minnesota

CITY           SKY/WX    TMP DP  RH WIND       PRES   REMARKS
FERGUS FALLS   FAIR      64  64 100 S10       29.91S
WHEATON        FAIR      63  61  94 SE6       29.92S
MORRIS         FAIR      63  63 100 SE8       29.93S
ALEXANDRIA     FAIR      65  64  97 S10       29.96F
ELBOW LAKE     FAIR      64  63  97 S10       29.92F
WADENA         FAIR      63  61  94 S6        29.94S
GLENWOOD       FAIR      63  63 100 S9        29.97S
APPLETON       FAIR      64  63  94 S5        29.93S
BENSON         FAIR      63  61  94 S5        29.95S
ORTONVILLE     FAIR      63  61  94 S5        29.92S
MADISON        FAIR      63  61  94 S7        29.93S
WILLMAR        FAIR      63  63 100 SE5       29.98S FOG
$$
MNZ033>034-036-042>043-049>051-058-059-300700-
   Central Minnesota

CITY           SKY/WX    TMP DP  RH WIND       PRES   REMARKS
ST CLOUD       FAIR      59  59 100 SE5       29.98S FOG
6HR MIN TEMP:  59; 6HR MAX TEMP:  69;

SAUK CENTRE    MOCLDY    60  60  99 SE3       29.97S FOG
PAYNESVILLE    FAIR      63  62  97 SE7       29.98S
AITKIN         FAIR      64  57  77 S8        29.95F
PINE RIVER     CLOUDY    63  63 100 S5        29.99S
BRAINERD       FAIR      61  60  97 S7        29.96F
STAPLES        MOCLDY    63  61  94 S7        29.95F
LONG PRAIRIE   CLOUDY    63  61  94 S7        29.97S
LITTLE FALLS   FAIR      61  59  94 SE3       29.97F
LITCHFIELD     FAIR      63  63 100 SE3       29.99F
BUFFALO        FAIR      62  59  91 CALM      30.00F
MAPLE LAKE     FAIR      62  61  97 S5        30.00S
$$
MNZ037-044-045-052-053-300700-
   East Central Minnesota

CITY           SKY/WX    TMP DP  RH WIND       PRES   REMARKS
PRINCETON      FAIR      63  61  94 CALM      29.99F
MORA           FAIR      59  55  88 CALM      30.01S
CAMBRIDGE      FAIR      63  55  77 CALM      29.98F HAZE
RUSH CITY      FAIR      61  59  94 SE3       30.01S
MOOSE LAKE     FAIR      61  59  94 S3        29.97F FOG
HINCKLEY       FAIR      61  61 100 CALM      29.99F
CLOQUET        FAIR      63  61  94 SW6       29.98S
MCGREGOR       FAIR      61  59  94 S3        29.97F
$$
MNZ071>073-080-081-089-090-097-098-300700-
   Southwest Minnesota

CITY           SKY/WX    TMP DP  RH WIND       PRES   REMARKS
MONTEVIDEO     FAIR      64  64 100 S7        29.96S
GRANITE FALLS  FAIR      62  62  99 SE6       29.97F
CANBY          FAIR      66  62  87 S3        29.95S
MARSHALL       FAIR      64  57  77 S13       29.97F
REDWOOD FALLS  FAIR      62  61  96 S9        29.98S
OLIVIA         FAIR      59  57  94 S8        29.97F
PIPESTONE      FAIR      61  61 100 SW6       30.01S FOG
WINDOM         FOG       63  61  94 S7        30.01S VSB 3/4
WORTHINGTON    CLOUDY    63  59  88 S7        30.02S VSB 1
JACKSON        FOG       61  61 100 S10       30.03S VSB 1/4
TRACY          FAIR      65  63  93 SW12G20   29.97F
SLAYTON        MOCLDY    62  62 100 S12G18    30.01S
$$
MNZ065>067-074>077-082>085-091>093-300700-
   South Central Minnesota

CITY           SKY/WX    TMP DP  RH WIND       PRES   REMARKS
MANKATO        FAIR      61  57  88 S6        30.02S
NEW ULM        FAIR      61  61 100 S7        29.99F
ST JAMES       FAIR      61  61 100 SE8       30.02S
FAIRMONT       FAIR      61  55  82 S8        30.02F
GLENCOE        FAIR      63  62  97 S5        30.00S
FARIBAULT      FOG       63  61  94 S3        30.03S VSB 1/2
OWATONNA       FAIR      63  61  94 S5        30.03F
WASECA         FAIR      59  55  88 S5        30.04S FOG
ALBERT LEA     FOG       63  63 100 S3        30.04F VSB 1/2
$$
MNZ078>079-086>088-094>096-300700-
   Southeast Minnesota

CITY           SKY/WX    TMP DP  RH WIND       PRES   REMARKS
ROCHESTER      FAIR      59  58  96 S6        30.06R
6HR MIN TEMP:  59; 6HR MAX TEMP:  70;

RED WING       FAIR      64  61  88 S5        30.02S
STANTON        FAIR      63  60  92 CALM      30.01R
DODGE CENTER   FAIR      61  59  94 S8        30.04F
WINONA         FAIR      59  59 100 CALM      30.05S
AUSTIN         FAIR      64  63  94 S6        30.04F
PRESTON        FAIR      60  58  96 S3        30.06F
$$
ABBREVIATIONS USED IN REMARKS
   TC - TEMPERATURES IN CELSIUS
  WCI - WIND CHILL INDEX
   HX - HEAT INDEX
  VSB - VISIBILITY
$$



USA.gov is the U.S. government's official web portal to all federal, state and local government web resources and services.